Notices

What's New in latest Release from April 7th, 2021:

- Updated Glossary, including Speed of Maximum Gust, and Total Hourly Precipitation

- Updated national and regional climate services offices contacts and prices information

- Addition of station inventory lists for 1981-2010, 1971-2000, and 1961-1990 Normals.

If you haven't already, please take our survey and provide feedback about our website: https://eccc.sondage-survey.ca/f/LanguageSelection.aspx?s=442ca660-fcf1-47c0-95a9-59707d6fd709

Hourly Data Report for April 22, 2006

TORONTO CITY
ONTARIO

43°40'00.000" N
79°24'00.000" W
112.50 m
6158355
71508
XTO

Download Data

Hourly Data (April 2006)
Hourly Data Report for April 22, 2006
TIME
LST
Temp Definition
°C
Dew Point Definition
°C
Rel Hum Definition
%
Precip. Amount Definition
mm

Wind Dir Definition
10's deg

Wind Spd Definition
km/h
Visibility Definition
km
Stn Press Definition
kPa
Hmdx Definition


Wind Chill Definition


Weather Definition


00:00 12.5 7.2 70   LegendMM LegendMM   99.98     LegendNANA
01:00 12.0 8.6 80   LegendMM LegendMM   99.97     LegendNANA
02:00 11.9 10.2 89   LegendMM LegendMM   99.93     LegendNANA
03:00 11.5 10.8 95   LegendMM LegendMM   99.91     LegendNANA
04:00 10.1 9.7 97   LegendMM LegendMM   99.90     LegendNANA
05:00 8.7 8.4 98   LegendMM LegendMM   99.88     LegendNANA
06:00 8.3 8.1 99   LegendMM LegendMM   99.92     LegendNANA
07:00 7.8 7.6 99   LegendMM LegendMM   99.95     LegendNANA
08:00 7.1 7.0 99   LegendMM LegendMM   99.97     LegendNANA
09:00 7.1 7.0 99   LegendMM LegendMM   100.01     LegendNANA
10:00 7.1 7.0 99   LegendMM LegendMM   100.02     LegendNANA
11:00 6.7 6.6 99   LegendMM LegendMM   100.02     LegendNANA
12:00 6.6 6.5 99   LegendMM LegendMM   99.99     LegendNANA
13:00 6.9 6.8 99   LegendMM LegendMM   99.98     LegendNANA
14:00 6.9 6.8 99   LegendMM LegendMM   99.98     LegendNANA
15:00 7.0 6.9 99   LegendMM LegendMM   99.95     LegendNANA
16:00 6.6 6.4 99   LegendMM LegendMM   99.94     LegendNANA
17:00 6.4 6.2 99   LegendMM LegendMM   99.98     LegendNANA
18:00 6.6 6.4 99   LegendMM LegendMM   100.01     LegendNANA
19:00 6.6 6.4 99   LegendMM LegendMM   100.03     LegendNANA
20:00 6.8 6.5 98   LegendMM LegendMM   100.06     LegendNANA
21:00 6.9 6.6 98   LegendMM LegendMM   100.05     LegendNANA
22:00 7.0 6.6 97   LegendMM LegendMM   100.00     LegendNANA
23:00 7.2 6.8 97   LegendMM LegendMM   99.93     LegendNANA

Notes on Data Quality.

Legend

  • E = Estimated
  • M = Missing
  • NA = Not Available*
  • [empty] = Indicates an unobserved value
Date modified: